Время (UTC), дата Ветер
(°,м/с) 
Видим.   Явления Облачность Т
(°С)
Тd
(°С)
f(%) Тe
(°С)
Pmin
(гПа)
dP
(гПа)
Po
(мм)
O2
(г/м3)
Тmin Tmax R s Состояние
почвы
00 01.03.14 040 (СВ) 2000 м  ливневой снег  10/8 180 м кучево-дожд., средняя 
[Cb calv|As op]
-0.5 -0.9 97 -2  1020.5  -0.2  758  306           
03 01.03.14 060 (СВ) 3000 м  слаб. переохл. дождь (гололёд){ливн. осадки, снег} [диам. гололёда 0 мм]  10/8 180 м средняя 
[Frnb|As op]
-0.4 -0.8 97 -1  1021.1  0.6  759  306  -1       
06 01.03.14 080 (В) 4000 м  слаб. крупа{ливн. осадки, снег} [диам. гололёда 1 мм]  10/8 120 м кучево-дожд., средняя 
[Cb calv|As op]
+0.1 -0.3 97 -2  1021.6  0.6  759  306           
09 01.03.14 070 (В) 4000 м  дымка{ливн. осадки, дождь}  10/10 120 м 
[St]
+0.8 +0.4 97 -1  1021.6  759  305           
12 01.03.14 080 (В) 0200 м  туман{ливн. осадки, дождь}  ?/?  
+1.4 +1.4 100 1021.2  -0.4  759  304           
15 01.03.14 070 (В) 0600 м  слаб. дождь{туман}  ?/?  
+1.6 +1.6 100 1021.3  0.1  759  304    +1.6  0.0     
18 01.03.14 090 (В) 0400 м  туман{дождь}  ?/?  
+2.3 +2.3 100 1021  -0.3  759  303           
21 01.03.14 080 (В) 0200 м  туман  ?/?  
+2.2 +2.2 100 +1  1019.9  -1  758  303           
00 02.03.14 080 (В) 0200 м  туман  ?/?  
+2.1 +2.1 100 1019.5  -0.3  758  303           
03 02.03.14 080 (В) 0300 м  туман  ?/?  
+1.1 +1.1 100 -2  1018.6  -0.9  757  304  +1.1       
06 02.03.14 070 (В) 2000 м  в посл. час туман  10/10 100 м 
[St]
+1.6 +1.3 98 -1  1018.9  0.2  757  303  +0.9         
09 02.03.14 090 (В) 10 км    10/8 180 м средняя 
[St|Ac und]
+3.2 +2.5 95 1017.6  -1.2  756  301           
12 02.03.14 090 (В) 9-12{12}  10 км    9/0 средняя 
[Ac trans]
+6 +2.1 76 +3  1015.3  -2.1  755  297           
15 02.03.14 100 (В) 10-14{14}  10 км    9/0 средняя 
[Ac trans]
+5.2 +0.6 72 +2  1014.7  -0.7  754  298    +26.9       
18 02.03.14 090 (В) 9-12{14}  10 км    9/0 средняя 
[Ac trans]
+2.4 +0.5 87 -2  1014.9  0.1  754  301           
21 02.03.14 080 (В) 8-12{12}  10 км    10/0 средняя 
[Ac und]
+0.6 -1.3 87 -4  1014.5  -0.5  754  303           
00 03.03.14 090 (В) 10-14{14}  10 км    9/0 средняя 
[Ac trans]
+0.8 -0.7 90 -4  1012.9  -1.5  753  302           
03 03.03.14 090 (В) 9-12{15}  10 км    10/1 600 м кучево-дожд., средняя 
[Cb calv|Ac und]
+0.8 -0.8 89 -4  1012.7  -0.2  753  302  +0.3         
09 03.03.14 110 (В) 9-12{16}  10 км  слаб. ливневой дождь  10/6 240 м кучево-дожд., средняя 
[Cb calv|Ac und]
+2.9 +2.1 94 -1  1012.3  752  300           
12 03.03.14 090 (В) 7-11{16}  4000 м  в посл. час ливневой дождь  10/6 180 м кучево-дожд., средняя 
[Cb calv|Ac und]
+3.9 +3.7 99 +1  1011.4  -0.8  752  298           
15 03.03.14 100 (В) 8-12{13}  10 км    10/8 240 м кучево-дожд., средняя 
[Cb calv|Ac und]
+4.3 +3.7 96 +1  1011.5  0.1  752  298    +4.7     
18 03.03.14 100 (В) 9-12{14}  3000 м  дымка  10/10 100 м 
[St]
+3.2 +2.9 98 -1  1011.5  752  299           
21 03.03.14 100 (В) 7-10{12}  3000 м  дымка  10/10 120 м 
[St]
+3.4 +3.1 98 1011.4  -0.1  752  299           
00 04.03.14 090 (В) 9-12{12}  4000 м  дымка  10/10 120 м 
[St]
+4.2 +3.8 97 +1  1010.7  -0.7  751  297           
03 04.03.14 100 (В) 9-12{13}  4000 м  дымка  10/8 120 м средняя 
[Sc|Ac und]
+4 +3.7 98 1010.5  -0.1  751  298  +3.1         
12 04.03.14 090 (В) 10-13{14}  10 км    10/8 480 м средняя 
[Sc|Ac und]
+8 +4.7 80 +5  1010  -0.7  751  293           
15 04.03.14 090 (В) 8-12{13}  10 км    10/8 480 м средняя 
[Sc|Ac und]
+6.5 +4.3 86 +4  1011.3  1.2  752  295    +8.7       
18 04.03.14 090 (В) 8-11{13}  10 км    10/8 400 м средняя 
[Sc|Ac und]
+4.5 +3.2 91 +1  1011.9  0.8  752  298           
21 04.03.14 080 (В) 8-11{11}  10 км    9/5 330 м средняя 
[Sc|Ac trans]
+5.2 +3.9 91 +2  1011.9  -0.2  752  297           
00 05.03.14 080 (В) 5{11}  10 км  {дождь}  10/4 300 м средняя 
[Sc|Ac und]
+3.4 +2.5 94 +1  1012.8  0.9  753  299           
03 05.03.14 080 (В) 10 км    10/4 300 м средняя 
[Sc|Ac und]
+2.8 +2 94 1014  1.1  754  300  +2.6    0.0     
06 05.03.14 090 (В) 10 км  {дождь}  9/3 600 м средняя 
[Sc|Ac trans]
+2.8 +1.8 93 1015  754  301  +2.4         
09 05.03.14 090 (В) 7-10{10}  10 км    9/3 600 м средняя 
[Sc|Ac trans]
+4.7 +2.4 85 +2  1015.8  0.9  755  299           
12 05.03.14 100 (В) 5{10}  10 км    9/4 600 м средняя 
[Sc|Ac trans]
+5.7 +3 83 +4  1016.7  0.8  756  298           
15 05.03.14 080 (В) 10 км    10/6 600 м средняя 
[Sc|Ac und]
+6 +3.7 85 +4  1017.6  0.8  756  298    +6.3  0.0     
18 05.03.14 090 (В) 10 км  слаб. ливневой дождь  10/3 600 м кучево-дожд., средняя 
[Cb calv|As op]
+4.6 +3.9 95 +3  1018.8  1.1  757  299           
21 05.03.14 080 (В) 4000 м  слаб. дождь{ливн. осадки}  10/3 300 м средняя 
[Frnb|As op]
+3.8 +3.5 98 +2  1019  0.2  757  300           
00 06.03.14 070 (В) 6-10{10}  10 км  слаб. ливневой дождь  10/8 150 м кучево-дожд., средняя 
[Cb calv|Ac und]
+2.4 +1.7 95 -1  1019.2  0.2  757  302           
03 06.03.14 070 (В) 6{10}  10 км  {ливн. осадки, дождь}  10/10 570 м 
[Sc]
+2.3 +1.7 96 -1  1020.2  0.9  758  303  +2.2       
06 06.03.14 080 (В) 7-10{11}  10 км  в посл. час дождь{ливн. осадки}  10/10 210 м 
[Sc]
+1.3 +0.7 96 -2  1021.9  1.6  759  304  +1.2         
09 06.03.14 070 (В) 7-10{11}  10 км    9/6 900 м средняя 
[Sc|Ac trans]
+3.5 +1.9 89 1022.4  0.6  760  302           
12 06.03.14 080 (В) 8-12{12}  10 км  {дождь}  5/0 средняя 
[Ac trans]
+6.5 +1.8 72 +4  1021.9  -0.4  760  299           
15 06.03.14 080 (В) 6{12}  10 км    ясно 
+5.4 +1.1 74 +3  1023.1  1.1  760  300    +8.1  0.0     
18 06.03.14 080 (В) 8-11{12}  10 км    ясно 
+2 -1.2 79 -2  1024.9  1.6  762  305           
21 06.03.14 080 (В) 9-12{12}  10 км    ясно 
-0.4 -1.5 92 -5  1025.9  0.9  762  308           
00 07.03.14 070 (В) 10-13{12}  10 км    4/4 200 м 
[St]
-1.5 -2.3 94 -7  1026.7  0.6  763  309           
03 07.03.14 090 (В) 9-12{13}  1800 м  дымка  10/10 100 м 
[St]
-2.1 -2.4 98 -7  1028.1  1.5  764  310  -2.2         
06 07.03.14 080 (В) 10-13{13}  10 км  {туман}  10/6 240 м средняя 
[Sc|Ac und]
-0.9 -2.2 91 -6  1030.2  1.9  765  310           
09 07.03.14 090 (В) 10-13{14}  10 км    3/3 300 м 
[Sc]
+4.1 -1.7 66 1030.9  0.9  766  304           
12 07.03.14 100 (В) 11-15{15}  10 км    ясно 
+7 -2.9 49 +4  1031.1  0.1  766  301           
15 07.03.14 090 (В) 10-14{15}  10 км    4/0 средняя 
[Ac trans]
+4.9 -3.6 54 +1  1032.3  767  304    +7.6       
18 07.03.14 080 (В) 8-11{15}  10 км    1/0 средняя 
[Ac trans]
+1.2 -2.7 75 -3  1034.3  1.8  769  309           
21 07.03.14 080 (В) 9-12{12}  10 км    3/0 средняя 
[Ac trans]
-1.1 -2.6 90 -6  1034.5  769  311           
00 08.03.14 080 (В) 8-11{12}  10 км    ясно 
-2.2 -3.2 93 -7  1033.8  -0.6  768  312           
03 08.03.14 080 (В) 8-11{11}  10 км    ясно 
-2.8 -4 92 -8  1033.7  -0.2  768  313  -2.9         
06 08.03.14 090 (В) 10-14{13}  10 км    3/0 верхняя 
[Ci fib]
+0.1 -3.6 76 -5  1033.8  0.2  768  310  -3         
09 08.03.14 100 (В) 14-18{18}  10 км    4/0 верхняя 
[Ci fib]
+4.4 -3.8 55 1032.3  -1.3  767  305           
12 08.03.14 090 (В) 14-18{19}  10 км    6/0 верхняя 
[Ci fib]
+6.3 -3.7 49 +2  1030.4  -1.7  766  302           
15 08.03.14 090 (В) 11-15{18}  10 км    8/0 средняя, верхняя 
[Ac trans|Ci fib]
+4.1 -3.6 57 1029.4  -1  765  304    +7       
18 08.03.14 080 (В) 12-15{18}  10 км    4/0 средняя 
[Ac trans]
+1.3 -3.2 72 -4  1028  -1.4  764  307           
21 08.03.14 090 (В) 12-15{16}  10 км    3/0 средняя 
[Ac trans]
+0.1 -4.1 73 -5  1026.7  -1.3  763  308           
00 09.03.14 090 (В) 11-14{16}  10 км    8/0 средняя, верхняя 
[Ac trans|Ci fib]
-1.4 -3.7 84 -7  1025.5  -1.2  762  309           
03 09.03.14 090 (В) 11-15{15}  10 км    10/6 360 м средняя 
[Sc|Ac und]
-1.9 -3.5 89 -8  1025.2  -0.4  762  309  -1.9         
06 09.03.14 090 (В) 9-13{15}  10 км    10/8 300 м средняя 
[Sc|Ac und]
-1.4 -2.8 90 -6  1025.3  0.1  762  309  -2.1         
09 09.03.14 070 (В) 7-10{13}  10 км    10/8 300 м средняя 
[St|Ac und]
+0.5 -1.3 88 -3  1025.6  0.3  762  307           
15 09.03.14 050 (СВ) 7-10{11}  4000 м  слаб. морось  10/10 330 м 
[St]
+1.2 -0.2 90 -2  1026.3  0.6  763  306    +1.5  0.0     
18 09.03.14 040 (СВ) 8-11{11}  10 км  {дождь, морось}  10/10 540 м 
[Sc]
+1.3 -0.7 86 -3  1027.8  1.4  764  306           
21 09.03.14 040 (СВ) 8-12{12}  10 км  слаб. дождь  10/8 300 м средняя 
[Frnb|As op]
+0.9 -0.1 93 -3  1027.6  -0.2  764  307           
00 10.03.14 050 (СВ) 8-13{14}  10 км  в посл. час ливневой снег{дождь}  8/5 300 м средняя 
[Frnb|Ac trans]
-0.1 -1 94 -4  1028.2  0.6  764  308           
03 10.03.14 050 (СВ) 8-12{13}  10 км    8/8 270 м 
[St]
-0.2 -1.1 94 -4  1028.7  0.5  764  308  -0.8    0.0     
06 10.03.14 050 (СВ) 10-14{13}  10 км    8/8 400 м 
[St]
+1.1 -0.7 88 -4  1029.2  0.5  765  307           
09 10.03.14 060 (СВ) 12-15{16}  10 км    6/6 570 м 
[Sc]
+4.3 -0.1 73 1027.8  -1.3  764  303           
12 10.03.14 060 (СВ) 12-16{18}  10 км    6/4 600 м средняя 
[Sc|Ac trans]
+6.3 -1.6 57 +3  1025.6  -2  762  300           
15 10.03.14 070 (В) 11-15{19}  10 км    9/4 600 м средняя 
[Sc|Ac trans]
+3.7 -3.9 58 -1  1025.1  -0.6  762  303    +7.9       
18 10.03.14 070 (В) 9-12{19}  10 км    9/5 700 м средняя 
[Sc|Ac trans]
+2 -2.9 70 -2  1023.8  -1.1  761  305           
21 10.03.14 070 (В) 8-12{13}  10 км    9/4 600 м средняя 
[Sc|Ac trans]
+1.4 -3 72 -3  1020.8  -2.9  759  304           
00 11.03.14 060 (СВ) 8-12{13}  10 км    8/4 600 м средняя 
[Sc|Ac trans]
-0.3 -3.1 81 -5  1018  -2.8  756  306           
03 11.03.14 040 (СВ) 7-11{12}  10 км    8/3 600 м средняя 
[Sc|Ac trans]
-0.3 -3.2 81 -4  1016.4  -1.6  755  305  -0.6         
06 11.03.14 050 (СВ) 7{12}  10 км  слаб. ливневой снег  8/4 600 м кучево-дожд., средняя, верхняя 
[Cb calv|Ac trans|Ci fib]
+0.5 -3.1 77 -3  1015.1  -1.2  754  304           
09 11.03.14 070 (В) 9-12{14}  10 км  {ливн. осадки}  10/6 570 м средняя 
[Sc|Ac und]
+2.7 -2.1 71 -1  1013.1  -1.7  753  301           
15 11.03.14 080 (В) 10 км  слаб. дождь  10/8 300 м средняя 
[Sc|Ac und]
+3.2 +0 80 +1  1012.4  0.3  752  300    +3.9  0.0     
18 11.03.14 050 (СВ) 3000 м  слаб. ливневой снег  10/8 150 м кучево-дожд., средняя 
[Cb calv|Ac und]
+0.4 +0 97 -1  1012.5  -0.1  752  303           
21 11.03.14 030 (СВ) 4000 м  слаб. ливневой дождь со снегом  10/8 180 м кучево-дожд., средняя 
[Cb calv|Ac und]
+0.8 +0.5 98 1010.7  -1.7  751  302           
00 12.03.14 090 (В) 3000 м  дымка{ливн. осадки, дождь}  10/8 180 м кучево-дожд., средняя 
[Cb calv|Ac und]
+0.5 +0.2 98 +1  1009.9  -0.8  750  302           
03 12.03.14 350 (С) 2000 м  слаб. ливневой снег  10/8 150 м кучево-дожд., средняя 
[Cb calv|Ac und]
+0.4 +0.1 98 1009.7  -0.2  750  302  +0.2       
06 12.03.14 010 (С) 4000 м  слаб. ливневой дождь{снег}  10/8 240 м кучево-дожд., средняя 
[Cb calv|Ac und]
+1.3 +1.1 99 -1  1010.7  751  301           
09 12.03.14 340 (С) 10 км  слаб. дождь{ливн. осадки}  10/8 630 м средняя 
[Sc|Ac und]
+3.6 +1.7 87 +1  1011.4  0.8  752  299           
12 12.03.14 010 (С) 7-10{10}  10 км  {ливн. осадки, дождь}  9/4 300 м средняя, верхняя 
[Sc|Ac trans|Ci fib]
+7.7 +1.4 64 +5  1011.4  0.1  752  294           
15 12.03.14 030 (СВ) 10 км    9/3 600 м средняя 
[Sc|Ac trans]
+6.4 +1.2 69 +5  1013.2  1.6  753  296    +7.9     
18 12.03.14 020 (С) 5{12}  10 км    6/3 600 м средняя 
[Sc|Ac trans]
+4.3 -1.7 65 +2  1015.8  2.5  755  300           
21 12.03.14 010 (С) 10 км    4/0 средняя 
[Ac trans]
+1.7 -1.5 79 1017.6  1.6  756  303           
00 13.03.14 350 (С) 10 км    8/3 600 м средняя 
[Sc|Ac trans]
+1.8 -1.9 76 1018.4  0.6  757  303           
06 13.03.14 290 (З) 10 км    9/9 1000 м 
[Sc]
+3.6 -3 62 +3  1019.8  0.8  758  302           
09 13.03.14 300 (СЗ) 10 км    8/5 1000 м средняя 
[Sc|Ac trans]
+6.6 -2.5 52 +6  1019.4  0.1  758  298           
12 13.03.14 250 (З) 7-10  10 км    4/0 средняя 
[Ac trans]
+8.7 -2 47 +7  1017.2  -2.2  756  295           
15 13.03.14 250 (З) 7-10{11}  10 км    8/0 средняя 
[Ac trans]
+6.2 -3.1 51 +4  1016.8  -0.4  756  298    +9.4       
21 13.03.14 250 (З) 5{12}  10 км    6/0 средняя 
[Ac trans]
+3.7 -0.6 73 +1  1017.6  756  301           
00 14.03.14 260 (З) 5{12}  10 км    4/0 средняя 
[Ac trans]
+1.6 -0.5 86 -1  1017.3  -0.4  756  303           
06 14.03.14 230 (ЮЗ) 10 км    ясно 
+4 +0.8 80 +2  1018.1  0.5  757  300  +1.2         
09 14.03.14 240 (ЮЗ) 8-11{11}  10 км    ясно 
+9.9 +1.1 54 +8  1017.4  -0.3  756  294           
12 14.03.14 250 (З) 10-15{15}  10 км    ясно 
+12.5 +1.1 46 +11  1014.7  -2.5  754  290           
15 14.03.14 240 (ЮЗ) 12-17{17}  10 км    1/0 средняя 
[Ac trans]
+10.3 +1.8 56 +8  1014  -0.6  754  292    +12.9       
03 15.03.14 260 (З) 7-11{12}  4000 м  дымка  9/9 210 м 
[St]
+5.4 +4.3 93 +3  1016.1  0.6  755  298  +5.2         
15 16.03.14 220 (ЮЗ) 5{12}  10 км  {ливн. осадки}  10/8 240 м средняя 
[Sc|Ac und]
+4.3 +3.1 92 +2  999.2  1.7  743  294    +15     
21 16.03.14 230 (ЮЗ) 5{10}  10 км    8/0 средняя, верхняя 
[Ac trans|Ci]
+2 +0.8 92 -1  999.1  -1  742  297           
00 17.03.14 210 (ЮЗ) 5{10}  10 км    6/0 верхняя 
[Ci fib]
+1.6 +0.1 90 -1  997.3  -1.7  741  297           
03 17.03.14 190 (Ю) 7-11{11}  10 км  слаб. ливневой дождь  9/5 450 м кучево-дожд., средняя 
[Cb calv|Ac trans]
+2.3 +0.9 90 -1  992.9  -4.2  738  295  +1.5    0.0     
12 17.03.14 270 (З) 13-19  10 км  слаб. ливневой снег  10/8 750 м кучево-дожд., средняя 
[Cb calv|Ac und]
+1.8 -1.9 76 -3  998  742  297           
15 17.03.14 270 (З) 10-16{19}  4000 м  слаб. ливневой снег  9/6 800 м кучево-дожд., средняя 
[Cb calv|Ac trans]
+1.4 -2.4 76 -3  1002.9  4.9  745  299    +4.4     
03 18.03.14 250 (З) 13-19{21}  10 км  в посл. час ливневой дождь  10/8 420 м кучево-дожд., средняя 
[Cb calv|Ac und]
+6 +3.7 85 +2  997.8  -2.9  742  292  +0.9    0.4     
15 18.03.14 280 (З) 7-12{18}  10 км  {ливн. осадки}  8/8 1000 м кучево-дожд. 
[Cb calv]
+5.6 -1.7 59 +3  1007.7  4.3  749  296    +8.2  0.0     
21 18.03.14 270 (З) 10 км    5/1 1000 м средняя 
[Sc|Ac trans]
+2 -2.5 72 +1  1014.8  2.6  754  302           
00 19.03.14 270 (З) 10 км    ясно 
+1 -2 80 -1  1017.1  2.1  756  304           
06 19.03.14 210 (ЮЗ) 10 км    9/0 средняя 
[Ac trans]
+3.1 +0.8 85 +1  1019.3  0.5  758  302           
15 19.03.14 240 (ЮЗ) 7-10{14}  10 км    9/3 600 м средняя 
[Sc|Ac trans]
+11.3 +0.8 48 +10  1012.9  -2.3  753  291    +11.8       
18 19.03.14 240 (ЮЗ) 6{14}  10 км    10/0 средняя 
[Ac und]
+9.5 +0.9 55 +8  1012.2  -0.8  752  293           
03 20.03.14 250 (З) 6{11}  4000 м  слаб. ливневой дождь  10/8 150 м кучево-дожд., средняя 
[Cb calv|Ac und]
+6.8 +6.2 96 +5  1007.4  -1.1  749  293  +6.5       
12 20.03.14 270 (З) 10 км  {ливн. осадки}  9/4 600 м средняя 
[Sc|Ac trans]
+10.7 +5.4 70 +10  1009.2  0.8  750  290           
15 20.03.14 250 (З) 6{11}  10 км  в посл. час ливневой дождь  10/6 870 м кучево-дожд., средняя 
[Cb calv|Ac und]
+9.2 +5.5 78 +7  1010.6  1.4  751  292    +11.2     
03 21.03.14 340 (С) 9-12{14}  10 км    6/4 600 м средняя 
[Sc|Ac trans]
+1.6 -2.5 74 -3  1020.8  5.4  759  304  +1.5    0.6     
09 21.03.14 350 (С) 5{11}  10 км    5/3 600 м средняя 
[Sc|Ac trans]
+3.6 -3.5 60 +1  1026.8  763  304           
12 21.03.14 030 (СВ) 10 км    4/1 1000 м средняя 
[Sc|Ac trans]
+5.8 -2.9 54 +4  1028.1  1.2  764  302           
18 21.03.14 120 (ЮВ) 10 км    3/0 верхняя 
[Ci fib]
+2.5 -2.9 67 +2  1029.4  0.7  765  306           
21 21.03.14 250 (З) 10 км    ясно 
+1.1 -2.6 76 +2  1030.4  0.9  766  308           
00 22.03.14 180 (Ю) 10 км    ясно 
+0.5 -2.4 81 -1  1029.2  -1.1  765  308           
06 22.03.14 160 (Ю) 10 км    3/0 верхняя 
[Ci fib]
+3.3 -1 73 +2  1028.8  765  305           
09 22.03.14 150 (ЮВ) 10 км    8/0 верхняя 
[Ci fib]
+8.9 -1.8 47 +8  1027.1  -1.5  763  298           
12 22.03.14 150 (ЮВ) 10 км    8/0 верхняя 
[Ci fib]
+13.2 -2.8 33 +13  1024.3  -2.6  761  293           
18 22.03.14 130 (ЮВ) 10 км    5/0 верхняя 
[Ci fib]
+6.6 -2.1 54 +6  1022.1  -0.7  760  299           
21 22.03.14 080 (В) 10 км    ясно 
+5.2 -0.5 67 +5  1022  -0.2  760  300           
00 23.03.14 090 (В) 10 км    ясно 
+1.7 -0.3 87 1021  -1  759  304           
03 23.03.14 070 (В) 10 км    ясно 
-0.4 -1 96 -3  1020.8  -0.2  758  306  -0.5         
06 23.03.14 100 (В) 10 км    ясно 
+6.7 +1.8 71 +5  1020.3  -0.1  758  298           
09 23.03.14 100 (В) 10 км    ясно 
+14.7 +2.7 44 +14  1018.9  -1.1  758  289           
12 23.03.14 090 (В) 10 км    4/0 верхняя 
[Ci fib]
+18.9 +1.7 32 +19  1016.8  -1.9  756  285           
18 23.03.14 100 (В) 10 км    3/0 верхняя 
[Ci fib]
+11.1 +1.5 52 +10  1017.7  1.1  757  293           
21 23.03.14 100 (В) 10 км    ясно 
+8 +1.5 64 +6  1017.7  756  296           
00 24.03.14 080 (В) 10 км    ясно 
+4.5 +1.2 79 +2  1017.4  -0.5  756  300           
03 24.03.14 080 (В) 10 км    ясно 
+1.6 -0.2 88 -1  1017.6  756  303  +1.6         
06 24.03.14 100 (В) 10 км    ясно 
+4.4 +1.5 81 +3  1018.3  0.8  757  300  +1.3         
09 24.03.14 120 (ЮВ) 10 км    ясно 
+12.3 +3.3 54 +11  1017.3  -0.6  756  291           
12 24.03.14 120 (ЮВ) 10 км    ясно 
+18.1 +4.8 41 +18  1015.9  -1.1  755  285           
15 24.03.14 120 (ЮВ) 10 км    ясно 
+16.8 +4.1 43 +17  1015.2  -0.7  755  286    +19.4       
18 24.03.14 080 (В) 10 км    ясно 
+9.4 +5.5 77 +8  1016.2  0.6  755  293           
21 24.03.14 090 (В) 10 км    ясно 
+6.2 +4.1 86 +5  1015.7  -0.5  755  297           
00 25.03.14 080 (В) 10 км    1/0 верхняя 
[Ci fib]
+5 +3.8 92 +3  1015.1  -0.6  754  298           
03 25.03.14 090 (В) 1400 м  дымка  9/8 60 м средняя 
[St|Ac trans]
+3.4 +3.1 98 +1  1015  -0.1  754  300  +3.2         
06 25.03.14 080 (В) 8-11{11}  4000 м  дымка{туман}  10/10 120 м 
[St]
+4.2 +3.8 97 +1  1015.3  0.3  755  299           
09 25.03.14 090 (В) 8-11{11}  10 км    6/6 420 м 
[Sc]
+7.9 +4.4 79 +5  1014.5  -0.7  754  295           
12 25.03.14 080 (В) 9-12{12}  10 км    ясно 
+11.6 +4.4 61 +10  1013.1  -1.1  753  290           
15 25.03.14 080 (В) 8-11{12}  10 км    ясно 
+9.8 +3.8 66 +8  1012.9  -0.2  753  292    +12.1       
18 25.03.14 080 (В) 7-10{12}  10 км    3/0 верхняя 
[Ci fib]
+5.5 +2.9 83 +3  1014  0.8  754  297           
21 25.03.14 080 (В) 5{10}  10 км    ясно 
+4.1 +2.7 91 +2  1013.6  -0.3  753  299           
00 26.03.14 080 (В) 5{10}  10 км    ясно 
+5.4 +4.1 91 +3  1013  -0.6  753  297           
03 26.03.14 070 (В) 10 км    3/0 верхняя 
[Ci fib]
+3 +2 93 +1  1013.9  0.8  753  300  +3         
06 26.03.14 080 (В) 10 км    ясно 
+6.1 +3.3 82 +4  1014.6  0.7  754  297           
09 26.03.14 070 (В) 10 км    ясно 
+13.5 +5.9 60 +13  1014.3  0.1  754  289           
12 26.03.14 100 (В) 10 км    ясно 
+16.6 +5.9 49 +16  1013.7  -0.5  754  285           
15 26.03.14 070 (В) 10 км    ясно 
+15.3 +4.9 50 +16  1014  0.1  754  287    +17.8       
18 26.03.14 060 (СВ) 10 км    ясно 
+7.8 +3.2 73 +7  1015.5  1.2  755  295           
21 26.03.14 030 (СВ) 10 км    ясно 
+8.4 +3.4 71 +9  1015.8  0.3  755  295           
00 27.03.14 030 (СВ) 10 км    ясно 
+7.9 +3.3 73 +7  1015.5  -0.3  755  295           
03 27.03.14 070 (В) 10 км    4/0 средняя, верхняя 
[Ac trans|Ci fib]
+5.5 +2.4 80 +4  1016.1  0.5  755  298  +5.5         
06 27.03.14 080 (В) 10 км    4/0 средняя 
[Ac trans]
+9.1 +4.8 74 +7  1018  757  294  +4.8         
12 27.03.14 110 (В) 4{12}  10 км    6/0 средняя, верхняя 
[Ac trans|Ci fib]
+13.5 +4.6 55 +13  1018.3  0.1  757  290           
15 27.03.14 080 (В) 10 км    8/1 1000 м кучево-дожд., средняя, верхняя 
[Cb calv|Ac trans|Ci fib]
+11.7 +4.8 63 +11  1017.9  -0.4  757  292    +14.7       
18 27.03.14 150 (ЮВ) 10 км    9/3 1000 м кучево-дожд., средняя 
[Cb calv|Ac trans]
+10.9 +4.7 66 +11  1018.4  0.4  757  293           
21 27.03.14 060 (СВ) 10 км    10/8 300 м средняя 
[Sc|Ac und]
+9.3 +7.7 90 +9  1017.5  -0.8  756  293           
00 28.03.14 070 (В) 3000 м  слаб. дождь  10/10 120 м 
[Sc]
+7.1 +6.2 94 +7  1016.3  -1.2  755  296           
03 28.03.14 110 (В) 4000 м  дымка{дождь}  10/10 210 м 
[Sc]
+6 +5.3 95 +6  1014.9  -1.4  754  297  +6    0.3     
06 28.03.14 190 (Ю) 1000 м  слаб. морось{дождь}  10/10 60 м 
[St]
+6.9 +6.6 98 +7  1014.1  -0.6  754  295  +5.9         
09 28.03.14 250 (З) 10 км  {морось}  9/6 300 м средняя 
[Sc|Ac trans]
+10.5 +6.8 78 +9  1011.8  -2.1  752  291           
12 28.03.14 250 (З) 8-11{10}  10 км  {морось}  5/3 600 м кучево-дожд., средняя, верхняя 
[Cb calv|Ac trans|Ci fib]
+13.2 +5.6 60 +12  1008.6  -3.1  750  287           
15 28.03.14 260 (З) 6-10{11}  10 км    9/4 600 м кучево-дожд., средняя 
[Cb calv|Ac trans]
+10.8 +4.8 66 +9  1006.5  -2  748  289    +13.5  0.0     
18 28.03.14 270 (З) 10 км  слаб. ливневой дождь  10/6 900 м кучево-дожд., средняя 
[Cb calv|Ac und]
+8.3 +7.1 92 +8  1004.9  -1.7  747  291           
00 29.03.14 010 (С) 9-13{17}  4000 м  слаб. ливневой дождь со снегом  10/6 210 м кучево-дожд., средняя 
[Cb calv|Ac und]
+1.9 +0.2 89 -2  1002.2  -0.2  745  298           
03 29.03.14 030 (СВ) 9-14{14}  2000 м  ливневой снег  10/8 180 м кучево-дожд., средняя 
[Cb calv|Ac und]
-0.2 -3.3 80 -5  1003.2  0.9  745  301  -0.2       
06 29.03.14 010 (С) 10-14{14}  10 км  {ливн. осадки}  8/5 800 м средняя 
[Sc|Ac trans]
-0.7 -6.5 65 -6  1004.9  1.6  747  302  -1.3         
09 29.03.14 340 (С) 10-15{16}  10 км  в посл. час ливневой снег  8/8 1000 м кучево-дожд. 
[Cb calv]
-0.7 -10.1 49 -6  1006.6  1.6  748  303           
12 29.03.14 350 (С) 7-12{18}  10 км  в посл. час ливневой снег  8/8 1000 м кучево-дожд. 
[Cb calv]
+0.4 -8.8 50 -3  1008.2  1.5  749  302           
15 29.03.14 360 (С) 8-12{17}  4000 м  слаб. ливневой снег  8/8 800 м кучево-дожд. 
[Cb calv]
-1.3 -7.9 61 -6  1009.2  0.9  750  304    +1.2  0.0     
18 29.03.14 330 (СЗ) 10 км  {ливн. осадки}  8/4 1000 м средняя 
[Sc|Ac trans]
-1.9 -6.8 69 -6  1010.6  1.5  751  305           
21 29.03.14 330 (СЗ) 7-11{11}  10 км    8/0 средняя 
[Ac trans]
-1.8 -6.1 73 -6  1011.1  0.4  751  305           
00 30.03.14 320 (СЗ) 6{11}  10 км    8/3 600 м средняя 
[Sc|Ac trans]
-2.5 -6.2 76 -6  1011.8  0.6  752  306           
03 30.03.14 300 (СЗ) 10 км    6/3 1000 м средняя 
[Sc|Ac trans]
-2.1 -6.7 71 -5  1012.9  753  306  -2.5    0.0     
06 30.03.14 320 (СЗ) 8-11{10}  10 км    1/0 средняя 
[Ac trans]
+0.6 -6.6 58 -4  1013.4  0.6  753  303           
09 30.03.14 320 (СЗ) 9-13{13}  10 км    1/1 600 м 
[Sc]
+5.5 -7.9 37 +2  1012.4  -0.7  752  298           
12 30.03.14 330 (СЗ) 8-12{13}  10 км    3/3 600 м 
[Sc]
+7.5 -9.9 28 +5  1010.8  -1.6  751  296           
15 30.03.14 300 (СЗ) 6-10{13}  10 км    4/3 600 м средняя 
[Sc|Ac trans]
+6.8 -12.3 24 +5  1010.8  751  296    +7.8       
18 30.03.14 260 (З) 2{13}  10 км    ясно 
+3.9 -12.5 29 +3  1011.9  752  300           
21 30.03.14 260 (З) 10 км    ясно 
+0.2 -6.8 59 -1  1012.4  0.2  752  304           
00 31.03.14 260 (З) 10 км    3/0 средняя 
[Ac trans]
+1.3 -9 46 +1  1011.6  -0.6  752  302           
03 31.03.14 270 (З) 10 км    3/0 средняя 
[Ac trans]
+1.9 -5.1 60 1010.9  -0.6  751  301  -0.8         
06 31.03.14 260 (З) 10 км    8/0 средняя, верхняя 
[Ac trans|Ci fib]
+6.2 -1.1 60 +4  1010.7  751  296           
09 31.03.14 240 (ЮЗ) 7-11{11}  10 км    8/0 средняя, верхняя 
[Ac trans|Ci fib]
+8.7 +1.6 61 +7  1010.2  -0.5  751  293           
12 31.03.14 250 (З) 12-15{16}  10 км    6/0 средняя, верхняя 
[Ac trans|Ci fib]
+10.1 +0.8 52 +7  1008.9  -1  825  321           
15 31.03.14 250 (З) 11-15{17}  10 км    8/0 средняя, верхняя 
[Ac trans|Ci fib]
+9.3 +0.1 53 +6  1008.6  -0.3  750  292    +10.5       
18 31.03.14 240 (ЮЗ) 11-15{17}  10 км    5/0 средняя, верхняя 
[Ac trans|Ci fib]
+6.7 +1.1 67 +3  1009  0.3  750  295           
21 31.03.14 240 (ЮЗ) 9-14{15}  10 км    5/0 средняя, верхняя 
[Ac trans|Ci fib]
+5.9 +2.5 79 +3  1009  -0.1  750  295           
00 01.04.14 230 (ЮЗ) 9-13{15}  10 км    5/1 200 м средняя, верхняя 
[St|Ac trans|Ci fib]
+5.5 +2.5 81 +2  1007.8  -1.2  749  295           
03 01.04.14 250 (З) 9-14{14}  10 км    8/4 300 м средняя, верхняя 
[Sc|Ac trans|Ci fib]
+5.2 +2.4 82 +2  1006.7  -0.9  748  295  +5.1         
Время (UTC), дата Ветер
(°,м/с) 
Видим.   Явления Облачность Т
(°С)
Тd
(°С)
f(%) Тe
(°С)
Pmin
(гПа)
dP
(гПа)
Po
(мм)
O2
(г/м3)
Тmin Tmax R s Состояние
почвы